Time,TemperatureF,DewpointF,PressureIn,WindDirection,WindDirectionDegrees,WindSpeedMPH,WindSpeedGustMPH,Humidity,HourlyPrecipIn,Conditions,Clouds,dailyrainin,SoftwareType,DateUTC
2013-03-26 00:04:00,26.2,20.6,29.37,NNE,22,0.0,0.0,79,0.00,,---,0.00,VWS V13.01,2013-03-26 05:04:00,
2013-03-26 00:09:00,25.8,20.2,29.37,WNW,292,4.0,4.0,79,0.00,,---,0.00,VWS V13.01,2013-03-26 05:09:00,
2013-03-26 00:14:00,25.8,20.2,29.37,North,0,0.0,0.0,79,0.00,,---,0.00,VWS V13.01,2013-03-26 05:14:00,
2013-03-26 00:19:00,25.8,20.2,29.37,NNW,338,12.4,12.4,79,0.00,,---,0.00,VWS V13.01,2013-03-26 05:19:00,
2013-03-26 00:24:00,25.7,20.1,29.37,NW,315,14.6,14.6,79,0.00,,---,0.00,VWS V13.01,2013-03-26 05:24:00,
2013-03-26 00:29:00,25.7,20.1,29.37,NW,315,0.0,0.0,79,0.00,,---,0.00,VWS V13.01,2013-03-26 05:29:00,
2013-03-26 00:34:00,25.5,20.2,29.37,NNW,338,3.4,3.4,80,0.00,,---,0.00,VWS V13.01,2013-03-26 05:34:00,
2013-03-26 00:39:00,25.5,20.2,29.38,North,0,0.0,0.0,80,0.00,,---,0.00,VWS V13.01,2013-03-26 05:39:00,
2013-03-26 00:44:00,25.5,20.2,29.38,North,0,3.4,3.4,80,0.00,,---,0.00,VWS V13.01,2013-03-26 05:44:00,
2013-03-26 00:49:00,25.3,20.0,29.38,North,0,0.0,0.0,80,0.00,,---,0.00,VWS V13.01,2013-03-26 05:49:00,
2013-03-26 00:54:00,25.3,20.0,29.38,North,0,0.0,0.0,80,0.00,,---,0.00,VWS V13.01,2013-03-26 05:54:00,
2013-03-26 00:59:00,25.1,19.8,29.38,NNW,338,1.6,1.6,80,0.00,,---,0.00,VWS V13.01,2013-03-26 05:59:00,
2013-03-26 01:04:00,24.9,19.6,29.38,North,0,0.0,0.0,80,0.00,,---,0.00,VWS V13.01,2013-03-26 06:04:00,
2013-03-26 01:09:00,24.9,19.6,29.38,NNE,22,0.0,10.6,80,0.00,,---,0.00,VWS V13.01,2013-03-26 06:09:00,
2013-03-26 01:14:00,24.9,19.6,29.38,North,0,0.0,16.4,80,0.00,,---,0.00,VWS V13.01,2013-03-26 06:14:00,
2013-03-26 01:19:00,24.8,19.8,29.38,North,0,0.0,0.0,81,0.00,,---,0.00,VWS V13.01,2013-03-26 06:19:00,
2013-03-26 01:24:00,24.6,19.6,29.38,NNW,338,11.6,11.6,81,0.00,,---,0.00,VWS V13.01,2013-03-26 06:24:00,
2013-03-26 01:29:00,24.6,19.6,29.38,NNW,338,2.6,9.2,81,0.00,,---,0.00,VWS V13.01,2013-03-26 06:29:00,
2013-03-26 01:34:00,24.6,19.6,29.38,NNE,22,0.0,0.0,81,0.00,,---,0.00,VWS V13.01,2013-03-26 06:34:00,
2013-03-26 01:39:00,24.4,19.4,29.38,NNW,338,0.0,0.0,81,0.00,,---,0.00,VWS V13.01,2013-03-26 06:39:00,
2013-03-26 01:44:00,24.4,19.4,29.38,North,0,0.0,0.0,81,0.00,,---,0.00,VWS V13.01,2013-03-26 06:44:00,
2013-03-26 01:49:00,24.4,19.4,29.38,North,0,0.0,0.0,81,0.00,,---,0.00,VWS V13.01,2013-03-26 06:49:00,
2013-03-26 01:54:00,24.4,19.1,29.38,NNE,22,0.0,8.4,80,0.00,,---,0.00,VWS V13.01,2013-03-26 06:54:00,
2013-03-26 01:59:00,24.0,19.0,29.38,NNE,22,0.0,0.0,81,0.00,,---,0.00,VWS V13.01,2013-03-26 06:59:00,
2013-03-26 02:04:00,24.0,19.0,29.38,NNE,22,0.0,0.0,81,0.00,,---,0.00,VWS V13.01,2013-03-26 07:04:00,
2013-03-26 02:09:00,24.0,19.0,29.38,North,0,4.0,4.0,81,0.00,,---,0.00,VWS V13.01,2013-03-26 07:09:00,
2013-03-26 02:14:00,23.9,18.9,29.38,North,0,0.0,6.6,81,0.00,,---,0.00,VWS V13.01,2013-03-26 07:14:00,
2013-03-26 02:19:00,23.9,18.9,29.38,NNW,338,4.8,4.8,81,0.00,,---,0.00,VWS V13.01,2013-03-26 07:19:00,
2013-03-26 02:24:00,23.7,18.7,29.38,NNW,338,0.0,0.0,81,0.00,,---,0.00,VWS V13.01,2013-03-26 07:24:00,
2013-03-26 02:29:00,23.5,18.5,29.38,North,0,0.0,7.0,81,0.00,,---,0.00,VWS V13.01,2013-03-26 07:29:00,
2013-03-26 02:34:00,23.5,18.5,29.38,North,0,5.2,5.2,81,0.00,,---,0.00,VWS V13.01,2013-03-26 07:34:00,
2013-03-26 02:39:00,23.3,18.3,29.38,NNW,338,0.0,0.0,81,0.00,,---,0.00,VWS V13.01,2013-03-26 07:39:00,
2013-03-26 02:44:00,23.1,18.1,29.38,NNW,338,0.0,0.0,81,0.00,,---,0.00,VWS V13.01,2013-03-26 07:44:00,
2013-03-26 02:49:00,23.1,18.1,29.38,NNW,338,9.2,9.2,81,0.00,,---,0.00,VWS V13.01,2013-03-26 07:49:00,
2013-03-26 02:54:00,23.0,18.0,29.38,North,0,0.0,0.0,81,0.00,,---,0.00,VWS V13.01,2013-03-26 07:54:00,
2013-03-26 03:00:00,22.8,18.1,29.38,NW,315,4.4,4.4,82,0.00,,---,0.00,VWS V13.01,2013-03-26 08:00:00,
2013-03-26 03:05:00,22.8,18.1,29.38,NNW,338,0.0,11.6,82,0.00,,---,0.00,VWS V13.01,2013-03-26 08:05:00,
2013-03-26 03:10:00,22.8,18.1,29.38,NNW,338,8.4,8.4,82,0.00,,---,0.00,VWS V13.01,2013-03-26 08:10:00,
2013-03-26 03:15:00,22.8,18.1,29.38,NNW,338,7.0,7.0,82,0.00,,---,0.00,VWS V13.01,2013-03-26 08:15:00,
2013-03-26 03:20:00,22.6,17.9,29.38,NW,315,10.6,10.6,82,0.00,,---,0.00,VWS V13.01,2013-03-26 08:20:00,
2013-03-26 03:25:00,22.6,17.9,29.38,NW,315,0.0,0.0,82,0.00,,---,0.00,VWS V13.01,2013-03-26 08:25:00,
2013-03-26 03:30:00,22.6,17.9,29.38,NNW,338,10.6,10.6,82,0.00,,---,0.00,VWS V13.01,2013-03-26 08:30:00,
2013-03-26 03:36:00,22.4,17.8,29.38,NW,315,5.8,5.8,82,0.00,,---,0.00,VWS V13.01,2013-03-26 08:36:00,
2013-03-26 03:41:00,22.2,17.5,29.38,NNW,338,13.4,13.4,82,0.00,,---,0.00,VWS V13.01,2013-03-26 08:41:00,
2013-03-26 03:47:00,22.2,17.5,29.38,North,0,11.6,11.6,82,0.00,,---,0.00,VWS V13.01,2013-03-26 08:47:00,
2013-03-26 03:52:00,22.2,17.5,29.38,NW,315,2.6,5.2,82,0.00,,---,0.00,VWS V13.01,2013-03-26 08:52:00,
2013-03-26 03:57:00,22.1,17.5,29.38,NNW,338,3.0,3.0,82,0.00,,---,0.00,VWS V13.01,2013-03-26 08:57:00,
2013-03-26 04:02:00,22.1,17.5,29.38,WNW,292,0.0,0.0,82,0.00,,---,0.00,VWS V13.01,2013-03-26 09:02:00,
2013-03-26 04:07:00,22.1,17.5,29.38,NNW,338,5.8,5.8,82,0.00,,---,0.00,VWS V13.01,2013-03-26 09:07:00,
2013-03-26 04:12:00,21.9,17.3,29.38,NNW,338,2.2,2.2,82,0.00,,---,0.00,VWS V13.01,2013-03-26 09:12:00,
2013-03-26 04:17:00,21.9,17.3,29.38,NNW,338,0.0,0.0,82,0.00,,---,0.00,VWS V13.01,2013-03-26 09:17:00,
2013-03-26 04:22:00,21.9,17.3,29.38,NNW,338,0.0,0.0,82,0.00,,---,0.00,VWS V13.01,2013-03-26 09:22:00,
2013-03-26 04:27:00,21.7,17.1,29.38,NNW,338,3.0,3.0,82,0.00,,---,0.00,VWS V13.01,2013-03-26 09:27:00,
2013-03-26 04:33:00,21.7,17.1,29.38,NW,315,0.0,4.4,82,0.00,,---,0.00,VWS V13.01,2013-03-26 09:33:00,
2013-03-26 04:38:00,21.7,17.1,29.38,NNW,338,0.0,0.0,82,0.00,,---,0.00,VWS V13.01,2013-03-26 09:38:00,
2013-03-26 04:43:00,21.5,16.9,29.38,NNW,338,0.0,0.0,82,0.00,,---,0.00,VWS V13.01,2013-03-26 09:43:00,
2013-03-26 04:48:00,21.3,16.7,29.38,NNW,338,8.0,8.0,82,0.00,,---,0.00,VWS V13.01,2013-03-26 09:48:00,
2013-03-26 04:53:00,21.3,16.7,29.38,NNW,338,0.0,0.0,82,0.00,,---,0.00,VWS V13.01,2013-03-26 09:53:00,
2013-03-26 04:58:00,21.3,16.7,29.38,NNW,338,0.0,0.0,82,0.00,,---,0.00,VWS V13.01,2013-03-26 09:58:00,
2013-03-26 05:03:00,21.0,16.4,29.39,NNW,338,0.0,0.0,82,0.00,,---,0.00,VWS V13.01,2013-03-26 10:03:00,
2013-03-26 05:08:00,21.0,16.4,29.38,NNW,338,0.0,0.0,82,0.00,,---,0.00,VWS V13.01,2013-03-26 10:08:00,
2013-03-26 05:13:00,21.0,16.4,29.38,NNW,338,0.0,0.0,82,0.00,,---,0.00,VWS V13.01,2013-03-26 10:13:00,
2013-03-26 05:18:00,20.8,16.2,29.39,NNW,338,0.0,0.0,82,0.00,,---,0.00,VWS V13.01,2013-03-26 10:18:00,
2013-03-26 05:23:00,20.8,16.2,29.39,NNW,338,0.0,0.0,82,0.00,,---,0.00,VWS V13.01,2013-03-26 10:23:00,
2013-03-26 05:28:00,20.4,15.8,29.39,NNW,338,0.0,0.0,82,0.00,,---,0.00,VWS V13.01,2013-03-26 10:28:00,
2013-03-26 05:33:00,20.4,15.8,29.39,NNW,338,0.0,0.0,82,0.00,,---,0.00,VWS V13.01,2013-03-26 10:33:00,
2013-03-26 05:38:00,20.4,16.1,29.39,NNW,338,0.0,0.0,83,0.00,,---,0.00,VWS V13.01,2013-03-26 10:38:00,
2013-03-26 05:43:00,20.4,16.1,29.40,North,0,0.0,0.0,83,0.00,,---,0.00,VWS V13.01,2013-03-26 10:43:00,
2013-03-26 05:48:00,20.4,16.1,29.39,NW,315,4.0,13.8,83,0.00,,---,0.00,VWS V13.01,2013-03-26 10:48:00,
2013-03-26 05:53:00,20.4,16.1,29.40,NNW,338,0.0,0.0,83,0.00,,---,0.00,VWS V13.01,2013-03-26 10:53:00,
2013-03-26 05:58:00,20.4,16.1,29.40,NNW,338,0.0,0.0,83,0.00,,---,0.00,VWS V13.01,2013-03-26 10:58:00,
2013-03-26 06:03:00,20.3,16.0,29.40,NNW,338,5.2,5.2,83,0.00,,---,0.00,VWS V13.01,2013-03-26 11:03:00,
2013-03-26 06:08:00,20.3,16.0,29.39,NNW,338,5.2,5.2,83,0.00,,---,0.00,VWS V13.01,2013-03-26 11:08:00,
2013-03-26 06:13:00,20.3,16.0,29.40,NNW,338,0.0,0.0,83,0.00,,---,0.00,VWS V13.01,2013-03-26 11:13:00,
2013-03-26 06:18:00,20.1,15.8,29.40,North,0,0.0,3.4,83,0.00,,---,0.00,VWS V13.01,2013-03-26 11:18:00,
2013-03-26 06:23:00,20.1,15.8,29.40,North,0,9.8,9.8,83,0.00,,---,0.00,VWS V13.01,2013-03-26 11:23:00,
2013-03-26 06:29:00,20.1,15.8,29.40,North,0,0.0,0.0,83,0.00,,---,0.00,VWS V13.01,2013-03-26 11:29:00,
2013-03-26 06:34:00,19.9,15.6,29.40,North,0,8.0,8.0,83,0.00,,---,0.00,VWS V13.01,2013-03-26 11:34:00,
2013-03-26 06:39:00,19.9,15.6,29.40,North,0,0.8,0.8,83,0.00,,---,0.00,VWS V13.01,2013-03-26 11:39:00,
2013-03-26 06:44:00,19.9,15.6,29.40,North,0,0.0,4.0,83,0.00,,---,0.00,VWS V13.01,2013-03-26 11:44:00,
2013-03-26 06:49:00,19.9,15.6,29.40,NNW,338,0.0,0.0,83,0.00,,---,0.00,VWS V13.01,2013-03-26 11:49:00,
2013-03-26 06:54:00,19.5,15.2,29.40,NNW,338,6.6,6.6,83,0.00,,---,0.00,VWS V13.01,2013-03-26 11:54:00,
2013-03-26 06:59:00,19.5,15.2,29.41,NNW,338,8.0,8.0,83,0.00,,---,0.00,VWS V13.01,2013-03-26 11:59:00,
2013-03-26 07:04:00,19.5,15.2,29.41,NNW,338,0.0,0.0,83,0.00,,---,0.00,VWS V13.01,2013-03-26 12:04:00,
2013-03-26 07:09:00,19.5,15.2,29.41,NNW,338,0.0,0.0,83,0.00,,---,0.00,VWS V13.01,2013-03-26 12:09:00,
2013-03-26 07:14:00,19.5,15.2,29.41,NNW,338,0.0,0.0,83,0.00,,---,0.00,VWS V13.01,2013-03-26 12:14:00,
2013-03-26 07:19:00,19.5,15.2,29.41,NNW,338,0.0,0.0,83,0.00,,---,0.00,VWS V13.01,2013-03-26 12:19:00,
2013-03-26 07:24:00,19.5,15.2,29.41,NNW,338,13.4,13.8,83,0.00,,---,0.00,VWS V13.01,2013-03-26 12:24:00,
2013-03-26 07:29:00,19.5,15.2,29.41,NNW,338,3.0,3.0,83,0.00,,---,0.00,VWS V13.01,2013-03-26 12:29:00,
2013-03-26 07:34:00,19.5,15.2,29.41,NNW,338,0.0,0.0,83,0.00,,---,0.00,VWS V13.01,2013-03-26 12:34:00,
2013-03-26 07:39:00,19.5,15.2,29.41,NNW,338,10.6,10.6,83,0.00,,---,0.00,VWS V13.01,2013-03-26 12:39:00,
2013-03-26 07:44:00,19.5,15.2,29.42,NNW,338,0.0,10.6,83,0.00,,---,0.00,VWS V13.01,2013-03-26 12:44:00,
2013-03-26 07:50:00,19.5,15.2,29.42,NNW,338,0.0,4.8,83,0.00,,---,0.00,VWS V13.01,2013-03-26 12:50:00,
2013-03-26 07:55:00,19.5,15.2,29.43,North,0,10.2,10.2,83,0.00,,---,0.00,VWS V13.01,2013-03-26 12:55:00,
2013-03-26 08:00:00,19.5,15.2,29.43,NW,315,11.0,11.0,83,0.00,,---,0.00,VWS V13.01,2013-03-26 13:00:00,
2013-03-26 08:05:00,19.7,15.4,29.43,North,0,0.0,0.0,83,0.00,,---,0.00,VWS V13.01,2013-03-26 13:05:00,
2013-03-26 08:10:00,19.9,15.6,29.43,North,0,0.0,0.0,83,0.00,,---,0.00,VWS V13.01,2013-03-26 13:10:00,
2013-03-26 08:15:00,19.9,15.6,29.43,NNW,338,6.6,6.6,83,0.00,,---,0.00,VWS V13.01,2013-03-26 13:15:00,
2013-03-26 08:21:00,20.1,15.8,29.43,NNW,338,12.8,12.8,83,0.00,,---,0.00,VWS V13.01,2013-03-26 13:21:00,
2013-03-26 08:27:00,20.3,16.0,29.43,NNW,338,7.0,7.0,83,0.00,,---,0.00,VWS V13.01,2013-03-26 13:27:00,
2013-03-26 08:32:00,20.4,16.1,29.43,North,0,0.0,0.0,83,0.00,,---,0.00,VWS V13.01,2013-03-26 13:32:00,
2013-03-26 08:38:00,20.4,16.1,29.44,North,0,0.0,0.0,83,0.00,,---,0.00,VWS V13.01,2013-03-26 13:38:00,
2013-03-26 08:43:00,20.8,16.5,29.44,NNE,22,0.0,0.0,83,0.00,,---,0.00,VWS V13.01,2013-03-26 13:43:00,
2013-03-26 08:48:00,20.8,16.5,29.43,NNW,338,14.2,14.2,83,0.00,,---,0.00,VWS V13.01,2013-03-26 13:48:00,
2013-03-26 08:53:00,21.0,16.4,29.44,NW,315,6.2,6.2,82,0.00,,---,0.00,VWS V13.01,2013-03-26 13:53:00,
2013-03-26 08:58:00,21.3,16.7,29.43,NNW,338,0.0,0.0,82,0.00,,---,0.00,VWS V13.01,2013-03-26 13:58:00,
2013-03-26 09:03:00,21.5,16.9,29.43,NNW,338,10.6,10.6,82,0.00,,---,0.00,VWS V13.01,2013-03-26 14:03:00,
2013-03-26 09:08:00,21.7,17.1,29.43,NNW,338,0.0,0.0,82,0.00,,---,0.00,VWS V13.01,2013-03-26 14:08:00,
2013-03-26 09:13:00,21.9,17.3,29.44,NNE,22,0.0,10.2,82,0.00,,---,0.00,VWS V13.01,2013-03-26 14:13:00,
2013-03-26 09:18:00,22.1,17.5,29.44,NW,315,0.0,10.6,82,0.00,,---,0.00,VWS V13.01,2013-03-26 14:18:00,
2013-03-26 09:23:00,22.4,17.8,29.44,NNW,338,0.0,0.0,82,0.00,,---,0.00,VWS V13.01,2013-03-26 14:23:00,
2013-03-26 09:29:00,22.8,17.9,29.44,NNW,338,1.2,1.2,81,0.00,,---,0.00,VWS V13.01,2013-03-26 14:29:00,
2013-03-26 09:34:00,22.8,17.9,29.44,NNW,338,0.0,0.0,81,0.00,,---,0.00,VWS V13.01,2013-03-26 14:34:00,
2013-03-26 09:39:00,23.3,18.3,29.44,NE,45,0.0,0.0,81,0.00,,---,0.00,VWS V13.01,2013-03-26 14:39:00,
2013-03-26 09:44:00,23.5,18.5,29.44,NNW,338,3.4,3.4,81,0.00,,---,0.00,VWS V13.01,2013-03-26 14:44:00,
2013-03-26 09:49:00,23.7,18.7,29.44,North,0,0.0,0.0,81,0.00,,---,0.00,VWS V13.01,2013-03-26 14:49:00,
2013-03-26 09:54:00,24.2,18.9,29.44,North,0,0.4,0.4,80,0.00,,---,0.00,VWS V13.01,2013-03-26 14:54:00,
2013-03-26 09:59:00,24.4,19.1,29.44,NNW,338,5.8,5.8,80,0.00,,---,0.00,VWS V13.01,2013-03-26 14:59:00,
2013-03-26 10:04:00,24.6,19.3,29.45,NW,315,9.8,9.8,80,0.00,,---,0.00,VWS V13.01,2013-03-26 15:04:00,
2013-03-26 10:09:00,24.9,19.6,29.44,North,0,0.0,0.0,80,0.00,,---,0.00,VWS V13.01,2013-03-26 15:09:00,
2013-03-26 10:14:00,25.1,19.5,29.44,North,0,0.0,0.0,79,0.00,,---,0.00,VWS V13.01,2013-03-26 15:14:00,
2013-03-26 10:19:00,25.5,19.9,29.44,North,0,7.0,7.0,79,0.00,,---,0.00,VWS V13.01,2013-03-26 15:19:00,
2013-03-26 10:24:00,25.8,20.2,29.46,North,0,0.0,0.0,79,0.00,,---,0.00,VWS V13.01,2013-03-26 15:24:00,
2013-03-26 10:29:00,26.0,20.1,29.46,NNW,338,0.0,0.0,78,0.00,,---,0.00,VWS V13.01,2013-03-26 15:29:00,
2013-03-26 10:34:00,26.2,20.3,29.45,NW,315,8.0,8.0,78,0.00,,---,0.00,VWS V13.01,2013-03-26 15:34:00,
2013-03-26 10:39:00,26.2,20.0,29.45,North,0,5.8,14.6,77,0.00,,---,0.00,VWS V13.01,2013-03-26 15:39:00,
2013-03-26 10:44:00,26.4,20.2,29.45,NW,315,7.0,7.0,77,0.00,,---,0.00,VWS V13.01,2013-03-26 15:44:00,
2013-03-26 10:49:00,26.6,20.4,29.45,NNE,22,0.0,0.0,77,0.00,,---,0.00,VWS V13.01,2013-03-26 15:49:00,
2013-03-26 10:54:00,27.3,21.1,29.45,North,0,0.0,5.8,77,0.00,,---,0.00,VWS V13.01,2013-03-26 15:54:00,
2013-03-26 10:59:00,27.6,21.4,29.46,NW,315,0.0,0.0,77,0.00,,---,0.00,VWS V13.01,2013-03-26 15:59:00,
2013-03-26 11:04:00,27.6,21.0,29.46,North,0,0.0,0.0,76,0.00,,---,0.00,VWS V13.01,2013-03-26 16:04:00,
2013-03-26 11:09:00,28.2,21.6,29.46,North,0,0.0,0.0,76,0.00,,---,0.00,VWS V13.01,2013-03-26 16:09:00,
2013-03-26 11:14:00,28.5,21.9,29.45,NNW,338,0.0,0.0,76,0.00,,---,0.00,VWS V13.01,2013-03-26 16:14:00,
2013-03-26 11:19:00,29.1,22.5,29.45,NNW,338,0.0,0.0,76,0.00,,---,0.00,VWS V13.01,2013-03-26 16:19:00,
2013-03-26 11:24:00,29.1,22.2,29.45,NNE,22,0.0,0.0,75,0.00,,---,0.00,VWS V13.01,2013-03-26 16:24:00,
2013-03-26 11:29:00,29.3,22.1,29.45,NNE,22,0.0,0.0,74,0.00,,---,0.00,VWS V13.01,2013-03-26 16:29:00,
2013-03-26 11:34:00,29.4,22.5,29.45,NNE,22,0.0,0.0,75,0.00,,---,0.00,VWS V13.01,2013-03-26 16:34:00,
2013-03-26 11:39:00,29.6,22.4,29.45,NNW,338,0.0,0.0,74,0.00,,---,0.00,VWS V13.01,2013-03-26 16:39:00,
2013-03-26 11:44:00,29.6,22.4,29.46,NNW,338,0.0,0.0,74,0.00,,---,0.00,VWS V13.01,2013-03-26 16:44:00,
2013-03-26 11:49:00,29.6,22.4,29.46,NNE,22,6.2,6.2,74,0.00,,---,0.00,VWS V13.01,2013-03-26 16:49:00,
2013-03-26 11:54:00,30.0,22.7,29.45,North,0,0.0,2.2,74,0.00,,---,0.00,VWS V13.01,2013-03-26 16:54:00,
2013-03-26 11:59:00,30.5,23.5,29.46,North,0,0.0,0.0,75,0.00,,---,0.00,VWS V13.01,2013-03-26 16:59:00,
2013-03-26 12:04:00,31.1,23.8,29.46,North,0,4.0,4.0,74,0.00,,---,0.00,VWS V13.01,2013-03-26 17:04:00,
2013-03-26 12:09:00,31.2,23.6,29.46,WNW,292,4.4,4.4,73,0.00,,---,0.00,VWS V13.01,2013-03-26 17:09:00,
2013-03-26 12:14:00,31.6,24.0,29.45,NW,315,0.0,0.0,73,0.00,,---,0.00,VWS V13.01,2013-03-26 17:14:00,
2013-03-26 12:19:00,31.6,24.0,29.46,NW,315,0.0,0.0,73,0.00,,---,0.00,VWS V13.01,2013-03-26 17:19:00,
2013-03-26 12:24:00,31.6,23.6,29.46,NW,315,12.4,12.4,72,0.00,,---,0.00,VWS V13.01,2013-03-26 17:24:00,
2013-03-26 12:29:00,31.8,23.8,29.45,WNW,292,0.0,0.0,72,0.00,,---,0.00,VWS V13.01,2013-03-26 17:29:00,
2013-03-26 12:34:00,32.5,24.5,29.45,WNW,292,0.0,0.0,72,0.00,,---,0.00,VWS V13.01,2013-03-26 17:34:00,
2013-03-26 12:39:00,33.0,24.6,29.45,WNW,292,4.0,6.2,71,0.00,,---,0.00,VWS V13.01,2013-03-26 17:39:00,
2013-03-26 12:44:00,33.4,24.7,29.45,WNW,292,0.0,0.0,70,0.00,,---,0.00,VWS V13.01,2013-03-26 17:44:00,
2013-03-26 12:49:00,33.4,24.7,29.45,WNW,292,0.0,0.0,70,0.00,,---,0.00,VWS V13.01,2013-03-26 17:49:00,
2013-03-26 12:54:00,33.6,24.9,29.45,WNW,292,0.0,0.0,70,0.00,,---,0.00,VWS V13.01,2013-03-26 17:54:00,
2013-03-26 12:59:00,33.6,24.9,29.45,WNW,292,0.0,0.0,70,0.00,,---,0.00,VWS V13.01,2013-03-26 17:59:00,
2013-03-26 13:04:00,33.6,24.9,29.45,WNW,292,0.0,0.0,70,0.00,,---,0.00,VWS V13.01,2013-03-26 18:04:00,
2013-03-26 13:09:00,34.3,25.5,29.45,WNW,292,0.0,0.0,70,0.00,,---,0.00,VWS V13.01,2013-03-26 18:09:00,
2013-03-26 13:14:00,34.8,26.0,29.45,WNW,292,0.0,0.0,70,0.00,,---,0.00,VWS V13.01,2013-03-26 18:14:00,
2013-03-26 13:19:00,35.2,26.1,29.44,WNW,292,0.0,0.0,69,0.00,,---,0.00,VWS V13.01,2013-03-26 18:19:00,
2013-03-26 13:24:00,35.2,26.1,29.45,WNW,292,0.0,0.0,69,0.00,,---,0.00,VWS V13.01,2013-03-26 18:24:00,
2013-03-26 13:29:00,35.4,25.9,29.44,WNW,292,0.0,0.0,68,0.00,,---,0.00,VWS V13.01,2013-03-26 18:29:00,
2013-03-26 13:34:00,35.4,26.3,29.44,WNW,292,0.0,0.0,69,0.00,,---,0.00,VWS V13.01,2013-03-26 18:34:00,
2013-03-26 13:39:00,35.4,25.9,29.45,NNW,338,7.6,7.6,68,0.00,,---,0.00,VWS V13.01,2013-03-26 18:39:00,
2013-03-26 13:44:00,35.4,25.9,29.44,NNW,338,0.0,0.0,68,0.00,,---,0.00,VWS V13.01,2013-03-26 18:44:00,
2013-03-26 13:49:00,35.4,25.9,29.44,North,0,0.0,0.0,68,0.00,,---,0.00,VWS V13.01,2013-03-26 18:49:00,
2013-03-26 13:54:00,35.7,26.2,29.45,NNW,338,0.0,0.0,68,0.00,,---,0.00,VWS V13.01,2013-03-26 18:54:00,
2013-03-26 13:59:00,35.4,25.5,29.44,North,0,3.0,3.0,67,0.00,,---,0.00,VWS V13.01,2013-03-26 18:59:00,
2013-03-26 14:04:00,35.2,25.4,29.44,North,0,5.2,5.2,67,0.00,,---,0.00,VWS V13.01,2013-03-26 19:04:00,
2013-03-26 14:09:00,35.4,25.5,29.44,North,0,3.0,3.0,67,0.00,,---,0.00,VWS V13.01,2013-03-26 19:09:00,
2013-03-26 14:14:00,35.6,25.7,29.44,North,0,0.0,0.0,67,0.00,,---,0.00,VWS V13.01,2013-03-26 19:14:00,
2013-03-26 14:19:00,35.6,25.7,29.43,NNW,338,0.0,0.0,67,0.00,,---,0.00,VWS V13.01,2013-03-26 19:19:00,
2013-03-26 14:24:00,36.1,26.2,29.44,NNW,338,0.0,0.0,67,0.00,,---,0.00,VWS V13.01,2013-03-26 19:24:00,
2013-03-26 14:29:00,36.1,25.9,29.43,NNW,338,0.0,0.0,66,0.00,,---,0.00,VWS V13.01,2013-03-26 19:29:00,
2013-03-26 14:34:00,36.1,25.9,29.43,NNW,338,3.0,3.0,66,0.00,,---,0.00,VWS V13.01,2013-03-26 19:34:00,
2013-03-26 14:39:00,36.1,25.9,29.44,NNW,338,4.8,4.8,66,0.00,,---,0.00,VWS V13.01,2013-03-26 19:39:00,
2013-03-26 14:44:00,35.9,25.3,29.43,NNW,338,0.0,0.0,65,0.00,,---,0.00,VWS V13.01,2013-03-26 19:44:00,
2013-03-26 14:49:00,36.1,25.5,29.44,NNW,338,0.0,0.0,65,0.00,,---,0.00,VWS V13.01,2013-03-26 19:49:00,
2013-03-26 14:55:00,36.1,25.5,29.43,NNW,338,0.0,0.0,65,0.00,,---,0.00,VWS V13.01,2013-03-26 19:55:00,
2013-03-26 15:00:00,36.1,25.5,29.44,NNW,338,0.0,0.0,65,0.00,,---,0.00,VWS V13.01,2013-03-26 20:00:00,
2013-03-26 15:05:00,36.3,26.0,29.43,NNW,338,0.0,14.6,66,0.00,,---,0.00,VWS V13.01,2013-03-26 20:05:00,
2013-03-26 15:10:00,36.5,25.9,29.43,NNW,338,14.2,14.2,65,0.00,,---,0.00,VWS V13.01,2013-03-26 20:10:00,
2013-03-26 15:15:00,36.6,26.0,29.44,NNW,338,7.6,7.6,65,0.00,,---,0.00,VWS V13.01,2013-03-26 20:15:00,
2013-03-26 15:20:00,37.0,26.3,29.43,NNW,338,3.0,3.0,65,0.00,,---,0.00,VWS V13.01,2013-03-26 20:20:00,
2013-03-26 15:25:00,37.2,26.5,29.44,North,0,2.2,2.2,65,0.00,,---,0.00,VWS V13.01,2013-03-26 20:25:00,
2013-03-26 15:31:00,37.2,26.5,29.43,NNW,338,3.0,3.0,65,0.00,,---,0.00,VWS V13.01,2013-03-26 20:31:00,
2013-03-26 15:36:00,37.2,26.5,29.43,WNW,292,0.0,0.0,65,0.00,,---,0.00,VWS V13.01,2013-03-26 20:36:00,
2013-03-26 15:41:00,37.9,27.2,29.43,West,270,0.0,0.0,65,0.00,,---,0.00,VWS V13.01,2013-03-26 20:41:00,
2013-03-26 15:47:00,37.9,26.8,29.43,WNW,292,0.0,0.0,64,0.00,,---,0.00,VWS V13.01,2013-03-26 20:47:00,
2013-03-26 15:52:00,37.9,26.8,29.43,NNW,338,0.0,14.6,64,0.00,,---,0.00,VWS V13.01,2013-03-26 20:52:00,
2013-03-26 15:58:00,37.9,27.2,29.44,NW,315,0.0,0.0,65,0.00,,---,0.00,VWS V13.01,2013-03-26 20:58:00,
2013-03-26 16:03:00,37.5,26.5,29.43,NNW,338,5.2,13.8,64,0.00,,---,0.00,VWS V13.01,2013-03-26 21:03:00,
2013-03-26 16:08:00,37.4,26.4,29.44,WNW,292,3.0,3.0,64,0.00,,---,0.00,VWS V13.01,2013-03-26 21:08:00,
2013-03-26 16:13:00,37.2,26.5,29.43,NNW,338,2.2,2.2,65,0.00,,---,0.00,VWS V13.01,2013-03-26 21:13:00,
2013-03-26 16:18:00,37.2,26.5,29.43,NNW,338,0.0,0.0,65,0.00,,---,0.00,VWS V13.01,2013-03-26 21:18:00,
2013-03-26 16:23:00,37.2,26.5,29.43,WNW,292,3.0,3.0,65,0.00,,---,0.00,VWS V13.01,2013-03-26 21:23:00,
2013-03-26 16:28:00,37.2,26.5,29.43,WNW,292,0.0,0.0,65,0.00,,---,0.00,VWS V13.01,2013-03-26 21:28:00,
2013-03-26 16:33:00,37.2,26.5,29.43,WNW,292,6.2,6.2,65,0.00,,---,0.00,VWS V13.01,2013-03-26 21:33:00,
2013-03-26 16:38:00,37.4,26.7,29.43,WNW,292,0.0,0.0,65,0.00,,---,0.00,VWS V13.01,2013-03-26 21:38:00,
2013-03-26 16:43:00,37.2,26.5,29.43,NNW,338,9.8,9.8,65,0.00,,---,0.00,VWS V13.01,2013-03-26 21:43:00,
2013-03-26 16:48:00,37.2,26.5,29.43,NNW,338,0.0,0.0,65,0.00,,---,0.00,VWS V13.01,2013-03-26 21:48:00,
2013-03-26 16:53:00,37.2,26.5,29.43,WNW,292,5.8,5.8,65,0.00,,---,0.00,VWS V13.01,2013-03-26 21:53:00,
2013-03-26 16:58:00,37.2,26.2,29.43,WNW,292,5.8,5.8,64,0.00,,---,0.00,VWS V13.01,2013-03-26 21:58:00,
2013-03-26 17:03:00,37.2,26.2,29.43,WNW,292,4.8,4.8,64,0.00,,---,0.00,VWS V13.01,2013-03-26 22:03:00,
2013-03-26 17:08:00,37.2,26.5,29.43,WNW,292,0.0,0.0,65,0.00,,---,0.00,VWS V13.01,2013-03-26 22:08:00,
2013-03-26 17:13:00,37.2,26.2,29.43,NNW,338,4.0,4.0,64,0.00,,---,0.00,VWS V13.01,2013-03-26 22:13:00,
2013-03-26 17:18:00,36.8,25.8,29.43,NNW,338,4.0,4.0,64,0.00,,---,0.00,VWS V13.01,2013-03-26 22:18:00,
2013-03-26 17:23:00,36.6,25.2,29.43,NNW,338,0.0,0.0,63,0.00,,---,0.00,VWS V13.01,2013-03-26 22:23:00,
2013-03-26 17:28:00,36.6,25.6,29.43,North,0,0.0,0.0,64,0.00,,---,0.00,VWS V13.01,2013-03-26 22:28:00,
2013-03-26 17:33:00,36.6,25.2,29.43,North,0,0.0,0.0,63,0.00,,---,0.00,VWS V13.01,2013-03-26 22:33:00,
2013-03-26 17:38:00,36.8,25.4,29.43,NNW,338,6.6,6.6,63,0.00,,---,0.00,VWS V13.01,2013-03-26 22:38:00,
2013-03-26 17:43:00,36.6,25.2,29.43,NNW,338,12.0,12.0,63,0.00,,---,0.00,VWS V13.01,2013-03-26 22:43:00,
2013-03-26 17:48:00,36.6,25.6,29.43,NNW,338,0.0,0.0,64,0.00,,---,0.00,VWS V13.01,2013-03-26 22:48:00,
2013-03-26 17:53:00,36.8,25.8,29.43,NW,315,0.0,0.0,64,0.00,,---,0.00,VWS V13.01,2013-03-26 22:53:00,
2013-03-26 17:58:00,36.8,25.8,29.43,NW,315,0.0,0.0,64,0.00,,---,0.00,VWS V13.01,2013-03-26 22:58:00,
2013-03-26 18:04:00,36.8,25.4,29.43,NNW,338,8.0,8.8,63,0.00,,---,0.00,VWS V13.01,2013-03-26 23:04:00,
2013-03-26 18:09:00,36.6,24.8,29.43,NNW,338,0.0,4.8,62,0.00,,---,0.00,VWS V13.01,2013-03-26 23:09:00,
2013-03-26 18:14:00,36.5,24.7,29.43,NNW,338,0.0,0.0,62,0.00,,---,0.00,VWS V13.01,2013-03-26 23:14:00,
2013-03-26 18:19:00,36.3,24.1,29.43,NNE,22,0.0,0.0,61,0.00,,---,0.00,VWS V13.01,2013-03-26 23:19:00,
2013-03-26 18:24:00,36.3,24.1,29.43,North,0,0.0,0.0,61,0.00,,---,0.00,VWS V13.01,2013-03-26 23:24:00,
2013-03-26 18:29:00,36.1,23.6,29.43,North,0,0.0,0.0,60,0.00,,---,0.00,VWS V13.01,2013-03-26 23:29:00,
2013-03-26 18:34:00,35.7,23.2,29.43,North,0,0.0,0.0,60,0.00,,---,0.00,VWS V13.01,2013-03-26 23:34:00,
2013-03-26 18:39:00,35.7,23.6,29.43,NNE,22,0.0,0.0,61,0.00,,---,0.00,VWS V13.01,2013-03-26 23:39:00,
2013-03-26 18:44:00,35.6,23.9,29.43,NNE,22,0.0,0.0,62,0.00,,---,0.00,VWS V13.01,2013-03-26 23:44:00,
2013-03-26 18:49:00,35.4,24.5,29.44,NNE,22,0.0,0.0,64,0.00,,---,0.00,VWS V13.01,2013-03-26 23:49:00,
2013-03-26 18:54:00,35.4,24.8,29.43,NNE,22,0.0,0.0,65,0.00,,---,0.00,VWS V13.01,2013-03-26 23:54:00,
2013-03-26 18:59:00,35.2,25.0,29.44,NNE,22,0.0,0.0,66,0.00,,---,0.00,VWS V13.01,2013-03-26 23:59:00,
2013-03-26 19:04:00,34.8,24.6,29.44,NNE,22,0.0,0.0,66,0.00,,---,0.00,VWS V13.01,2013-03-27 00:04:00,
2013-03-26 19:09:00,34.7,24.5,29.44,NNE,22,0.0,0.0,66,0.00,,---,0.00,VWS V13.01,2013-03-27 00:09:00,
2013-03-26 19:14:00,34.5,24.7,29.44,NNE,22,0.0,0.0,67,0.00,,---,0.00,VWS V13.01,2013-03-27 00:14:00,
2013-03-26 19:19:00,34.3,24.5,29.44,NNE,22,0.0,0.0,67,0.00,,---,0.00,VWS V13.01,2013-03-27 00:19:00,
2013-03-26 19:24:00,34.1,24.7,29.44,NNE,22,0.0,0.0,68,0.00,,---,0.00,VWS V13.01,2013-03-27 00:24:00,
2013-03-26 19:29:00,33.9,24.5,29.44,NNE,22,0.0,0.0,68,0.00,,---,0.00,VWS V13.01,2013-03-27 00:29:00,
2013-03-26 19:34:00,33.6,24.2,29.43,NNE,22,0.0,0.0,68,0.00,,---,0.00,VWS V13.01,2013-03-27 00:34:00,
2013-03-26 19:39:00,33.2,23.8,29.43,NNE,22,0.0,0.0,68,0.00,,---,0.00,VWS V13.01,2013-03-27 00:39:00,
2013-03-26 19:44:00,33.0,23.6,29.43,NNE,22,0.0,0.0,68,0.00,,---,0.00,VWS V13.01,2013-03-27 00:44:00,
2013-03-26 19:49:00,32.7,23.3,29.43,NNE,22,0.0,0.0,68,0.00,,---,0.00,VWS V13.01,2013-03-27 00:49:00,
2013-03-26 19:54:00,32.5,23.5,29.43,NNE,22,0.0,0.0,69,0.00,,---,0.00,VWS V13.01,2013-03-27 00:54:00,
2013-03-26 19:59:00,32.3,23.3,29.44,NNE,22,0.0,0.0,69,0.00,,---,0.00,VWS V13.01,2013-03-27 00:59:00,
2013-03-26 20:04:00,32.0,23.0,29.43,NNE,22,0.0,0.0,69,0.00,,---,0.00,VWS V13.01,2013-03-27 01:04:00,
2013-03-26 20:09:00,31.8,22.8,29.44,NNE,22,0.0,0.0,69,0.00,,---,0.00,VWS V13.01,2013-03-27 01:09:00,
2013-03-26 20:14:00,31.6,22.6,29.44,NNE,22,0.0,0.0,69,0.00,,---,0.00,VWS V13.01,2013-03-27 01:14:00,
2013-03-26 20:19:00,31.2,22.2,29.44,NNE,22,0.0,0.0,69,0.00,,---,0.00,VWS V13.01,2013-03-27 01:19:00,
2013-03-26 20:24:00,31.2,22.2,29.44,NNE,22,0.0,0.0,69,0.00,,---,0.00,VWS V13.01,2013-03-27 01:24:00,
2013-03-26 20:29:00,30.9,21.9,29.44,NNE,22,0.0,0.0,69,0.00,,---,0.00,VWS V13.01,2013-03-27 01:29:00,
2013-03-26 20:34:00,30.7,22.1,29.45,NNE,22,0.0,0.0,70,0.00,,---,0.00,VWS V13.01,2013-03-27 01:34:00,
2013-03-26 20:39:00,30.5,21.9,29.45,NNE,22,0.0,0.0,70,0.00,,---,0.00,VWS V13.01,2013-03-27 01:39:00,
2013-03-26 20:44:00,30.3,21.7,29.45,NNE,22,0.0,0.0,70,0.00,,---,0.00,VWS V13.01,2013-03-27 01:44:00,
2013-03-26 20:49:00,30.2,21.6,29.45,NNE,22,0.0,0.0,70,0.00,,---,0.00,VWS V13.01,2013-03-27 01:49:00,
2013-03-26 20:55:00,30.0,21.4,29.44,NNE,22,0.0,0.0,70,0.00,,---,0.00,VWS V13.01,2013-03-27 01:55:00,
2013-03-26 21:00:00,29.8,21.2,29.44,NNE,22,0.0,0.0,70,0.00,,---,0.00,VWS V13.01,2013-03-27 02:00:00,
2013-03-26 21:05:00,29.6,21.0,29.44,NNE,22,0.0,0.0,70,0.00,,---,0.00,VWS V13.01,2013-03-27 02:05:00,
2013-03-26 21:10:00,29.4,20.8,29.45,NNE,22,0.0,0.0,70,0.00,,---,0.00,VWS V13.01,2013-03-27 02:10:00,
2013-03-26 21:16:00,29.3,20.7,29.45,NNE,22,0.0,0.0,70,0.00,,---,0.00,VWS V13.01,2013-03-27 02:16:00,
2013-03-26 21:21:00,29.1,20.9,29.45,NNE,22,0.0,0.0,71,0.00,,---,0.00,VWS V13.01,2013-03-27 02:21:00,
2013-03-26 21:26:00,29.1,20.9,29.45,NNE,22,0.0,0.0,71,0.00,,---,0.00,VWS V13.01,2013-03-27 02:26:00,
2013-03-26 21:32:00,28.9,20.7,29.45,NNE,22,0.0,0.0,71,0.00,,---,0.00,VWS V13.01,2013-03-27 02:32:00,
2013-03-26 21:37:00,28.7,20.5,29.45,NNE,22,0.0,0.0,71,0.00,,---,0.00,VWS V13.01,2013-03-27 02:37:00,
2013-03-26 21:42:00,28.5,20.6,29.46,NNE,22,0.0,0.0,72,0.00,,---,0.00,VWS V13.01,2013-03-27 02:42:00,
2013-03-26 21:47:00,28.5,20.6,29.45,NNE,22,0.0,0.0,72,0.00,,---,0.00,VWS V13.01,2013-03-27 02:47:00,
2013-03-26 21:52:00,28.2,20.4,29.45,NNE,22,0.0,0.0,72,0.00,,---,0.00,VWS V13.01,2013-03-27 02:52:00,
2013-03-26 21:58:00,28.0,20.2,29.45,NNE,22,0.0,0.0,72,0.00,,---,0.00,VWS V13.01,2013-03-27 02:58:00,
2013-03-26 22:03:00,28.0,20.2,29.45,NNE,22,0.0,0.0,72,0.00,,---,0.00,VWS V13.01,2013-03-27 03:03:00,
2013-03-26 22:08:00,27.6,19.8,29.46,NNE,22,0.0,0.0,72,0.00,,---,0.00,VWS V13.01,2013-03-27 03:08:00,
2013-03-26 22:13:00,27.6,19.8,29.46,NNE,22,0.0,0.0,72,0.00,,---,0.00,VWS V13.01,2013-03-27 03:13:00,
2013-03-26 22:18:00,27.5,20.0,29.46,NNE,22,0.0,0.0,73,0.00,,---,0.00,VWS V13.01,2013-03-27 03:18:00,
2013-03-26 22:23:00,27.3,19.8,29.45,NNE,22,0.0,0.0,73,0.00,,---,0.00,VWS V13.01,2013-03-27 03:23:00,
2013-03-26 22:28:00,27.1,19.6,29.45,NNE,22,0.0,0.0,73,0.00,,---,0.00,VWS V13.01,2013-03-27 03:28:00,
2013-03-26 22:33:00,26.9,19.7,29.45,NNE,22,0.0,0.0,74,0.00,,---,0.00,VWS V13.01,2013-03-27 03:33:00,
2013-03-26 22:38:00,26.7,19.5,29.45,NNE,22,0.0,0.0,74,0.00,,---,0.00,VWS V13.01,2013-03-27 03:38:00,
2013-03-26 22:43:00,26.4,19.2,29.46,NNE,22,0.0,0.0,74,0.00,,---,0.00,VWS V13.01,2013-03-27 03:43:00,
2013-03-26 22:48:00,26.4,19.6,29.46,NNE,22,0.0,0.0,75,0.00,,---,0.00,VWS V13.01,2013-03-27 03:48:00,
2013-03-26 22:53:00,26.4,19.6,29.46,NNE,22,0.0,0.0,75,0.00,,---,0.00,VWS V13.01,2013-03-27 03:53:00,
2013-03-26 22:59:00,26.2,19.4,29.46,NNE,22,0.0,0.0,75,0.00,,---,0.00,VWS V13.01,2013-03-27 03:59:00,
2013-03-26 23:00:00,26.2,19.4,29.46,NNE,22,0.0,0.0,75,0.00,,---,0.00,VWS V13.01,2013-03-27 04:00:00,
2013-03-26 23:01:00,26.2,19.4,29.45,NNE,22,0.0,0.0,75,0.00,,---,0.00,VWS V13.01,2013-03-27 04:01:00,
2013-03-26 23:03:00,26.2,19.4,29.46,NNE,22,0.0,0.0,75,0.00,,---,0.00,VWS V13.01,2013-03-27 04:03:00,
2013-03-26 23:08:00,26.2,19.7,29.46,NNE,22,0.0,0.0,76,0.00,,---,0.00,VWS V13.01,2013-03-27 04:08:00,
2013-03-26 23:13:00,26.0,19.5,29.46,NNE,22,0.0,0.0,76,0.00,,---,0.00,VWS V13.01,2013-03-27 04:13:00,
2013-03-26 23:19:00,25.8,19.3,29.46,NNE,22,0.0,0.0,76,0.00,,---,0.00,VWS V13.01,2013-03-27 04:19:00,
2013-03-26 23:22:00,25.8,19.3,29.46,NNE,22,0.0,0.0,76,0.00,,---,0.00,VWS V13.01,2013-03-27 04:22:00,
2013-03-26 23:28:00,25.7,19.2,29.46,NNE,22,0.0,0.0,76,0.00,,---,0.00,VWS V13.01,2013-03-27 04:28:00,
2013-03-26 23:33:00,25.7,19.2,29.46,NNE,22,0.0,0.0,76,0.00,,---,0.00,VWS V13.01,2013-03-27 04:33:00,
2013-03-26 23:38:00,25.5,19.0,29.46,NNE,22,0.0,0.0,76,0.00,,---,0.00,VWS V13.01,2013-03-27 04:38:00,
2013-03-26 23:44:00,25.5,19.0,29.46,NNE,22,0.0,0.0,76,0.00,,---,0.00,VWS V13.01,2013-03-27 04:44:00,
2013-03-26 23:49:00,25.3,19.1,29.46,NNE,22,0.0,0.0,77,0.00,,---,0.00,VWS V13.01,2013-03-27 04:49:00,
2013-03-26 23:54:00,25.3,19.1,29.46,NNE,22,0.0,0.0,77,0.00,,---,0.00,VWS V13.01,2013-03-27 04:54:00,
2013-03-26 23:59:00,25.1,18.9,29.46,NNE,22,0.0,0.0,77,0.00,,---,0.00,VWS V13.01,2013-03-27 04:59:00,